Location: Clarks Summit,Pa.
(41.5000°N, 75.6000°W)
Time: 01:57:09
(UTC-05:00)

Envisat - Pass Details

Date: 06 December 2021
Orbit: 764 x 766 km, 98.2° (Epoch: 18 January)

Event Time Altitude Azimuth Distance (km) Brightness Sun altitude
Rises 04:19:16 0° 22° (NNE) 3,241 6.5 -32.0°
Reaches altitude 10° 04:21:49 10° 33° (NNE) 2,309 5.8 -31.6°
Maximum altitude 04:26:22 33° 96° (E) 1,280 4.6 -30.7°
Drops below altitude 10° 04:30:53 10° 160° (SSE) 2,293 5.7 -29.9°
Sets 04:33:24 0° 170° (S) 3,214 6.4 -29.4°
